Location: �terpigny
(49.8910°N, 2.9249°E)
Time: 17:44:07
(UTC+00:00)

UWE-3 - Pass Details

Date: 30 June 2022
Orbit: 583 x 677 km, 97.7° (Epoch: 10 August)

Event Time Altitude Azimuth Distance (km) Brightness Sun altitude
Rises 01:51:13 0° 32° (NNE) 2,883 ? -12.3°
Reaches altitude 10° 01:54:49 10° 64° (ENE) 1,994 ? -12.0°
Maximum altitude 01:56:28 12° 87° (E) 1,875 ? -11.9°
Drops below altitude 10° 01:58:08 10° 110° (ESE) 2,010 ? -11.8°
Sets 02:01:47 0° 141° (SE) 2,937 ? -11.5°
